Regional Weather Roundup
Issued by NWS

Home | Current Version | Previous Version | Graphics & Text | Print | Product List | Glossary On
Versions: 1 2 3 4 5 6 7 8 9 10 11 12 13 14 15 16 17 18 19 20 21 22 23 24 25 26 27 28
000
ASUS45 KGTF 050610
RWRMT
MONTANA HOURLY WEATHER ROUNDUP
NATIONAL WEATHER SERVICE GREAT FALLS MT
1200 AM MDT TUE MAY 05 2015

NOTE: "FAIR" INDICATES FEW OR NO CLOUDS BELOW 12000 FEET WITH NO
SIGNIFICANT WEATHER AND/OR OBSTRUCTIONS TO VISIBILITY.

MTZ001>007-043-050700-
WEST OF THE DIVIDE

CITY           SKY/WX    TMP DP  RH WIND       PRES   REMARKS
KALISPELL      CLEAR     41  33  73 S3        29.76R
MISSOULA       PTCLDY    52  34  50 N6        29.80R
BUTTE          PTCLDY    49  27  42 E7        29.88F
DEER LODGE       N/A     52  30  43 CALM      29.88S
EUREKA           N/A     46  28  49 CALM      29.75S
HAMILTON         N/A     55  34  44 S8        29.79S
LIBBY            N/A     46  28  49 CALM      29.77S
$$

MTZ008-052>055-050700-
SOUTHWEST MONTANA

CITY           SKY/WX    TMP DP  RH WIND       PRES   REMARKS
BOZEMAN        PTCLDY    53  36  52 W8        29.84S
DILLON         PTCLDY    57  31  37 NW5       29.86F
$$

MTZ009-010-012-014-046-048-049-054-050700-
EAST SLOPES AND CENTRAL MONTANA

CITY           SKY/WX    TMP DP  RH WIND       PRES   REMARKS
CUT BANK       CLEAR     44  23  43 S5        29.79R
GREAT FALLS    MOCLDY    57  21  24 SW7       29.78F
MALMSTROM AFB  PTCLDY    49  28  43 MISG      29.78S
HELENA         PTCLDY    59  28  30 SW8       29.81S
$$

MTZ011-013-016-021-045-047-050-051-050700-
NORTH CENTRAL MONTANA

CITY           SKY/WX    TMP DP  RH WIND       PRES   REMARKS
HAVRE          CLEAR     54  41  61 E5        29.75F
LEWISTOWN      CLEAR     51  39  63 E6        29.85F
CHINOOK          N/A     64  39  39 SE8       29.76F
FORT BENTON      N/A     57  36  44 CALM      29.76S
$$

MTZ017>020-022>042-056>058-061-062-050700-
EASTERN PLAINS

CITY           SKY/WX    TMP DP  RH WIND       PRES   REMARKS
BAKER          CLEAR     46  31  55 SE17      30.02F
BILLINGS       PTCLDY    56  39  53 CALM      29.85F
GLASGOW        CLEAR     54  35  48 SE20      29.87S
JORDAN           N/A     55  38  52 S17       29.86F
LIVINGSTON     PTCLDY    50  39  66 SE6       29.87S
MILES CITY     CLEAR     53  37  54 SE17      29.92F
SIDNEY         CLEAR     48  30  49 SE8       30.00F
WOLF POINT     CLEAR     53  35  50 E8        29.93F
BIG TIMBER       N/A     52  41  66 NE3       29.88S
FORSYTH          N/A     55  39  54 E10       29.88F
PLENTYWOOD       N/A     50  36  57 SE13      29.98F
POPLAR           N/A     52  34  50 E12       29.95F
$$

REGIONAL REPORTS...DAKOTAS

CITY           SKY/WX    TMP DP  RH WIND       PRES   REMARKS
WILLISTON      CLEAR     54  32  43 S12       30.02F
MINOT          CLOUDY    54  32  43 E9        30.09R
DICKINSON      CLEAR     44  29  55 SE12      30.04F
BEACH          FAIR      45  28  53 S15       30.02F
CROSBY         FAIR      52  34  50 S16       30.01F
WATFORD CITY   FAIR      50  28  43 SE15      30.02F
BISMARCK       CLOUDY    53  32  44 SE5       30.12S
GRAND FORKS    CLEAR     44  27  51 S5        30.17R
FARGO          CLEAR     46  24  42 SE6       30.18S
BUFFALO SD       N/A     46  30  53 SE17      29.99S
RAPID CITY     CLOUDY    47  37  68 S5        30.08F
$$

REGIONAL REPORTS...WYOMING/IDAHO/WASHINGTON

CITY           SKY/WX    TMP DP  RH WIND       PRES   REMARKS
GILLETTE       PTCLDY    48  32  53 S25G32    29.99F
SHERIDAN       CLEAR     52  41  66 SE18G25   29.90S
BUFFALO WY     PTCLDY    48  40  73 S22       29.97F
CODY           PTCLDY    52  41  66 CALM      29.92S
YELLOWSTONE LA   N/A     33  29  85 NW3       30.07S
IDAHO FALLS    CLOUDY    60  42  51 E6        29.91S
SALMON           N/A     59  34  38 CALM      29.82S
BOISE          MOCLDY    73  33  23 S7        29.74F
SPOKANE        PTCLDY    59  33  37 SW17      29.77R
$$

REGIONAL REPORTS...ALBERTA

CITY           SKY/WX    TMP DP  RH WIND       PRES   REMARKS
EDMONTON       CLEAR     46  30  53 E18G25    29.80F
CALGARY        PTCLDY    45  27  49 S6        29.70F
LETHBRIDGE     CLEAR     41  27  56 SW8       29.72F
MEDICINE HAT   CLEAR     48  37  66 E3        29.72F
$$

REGIONAL REPORTS...SASKATCHEWAN

CITY           SKY/WX    TMP DP  RH WIND       PRES   REMARKS
SWIFT CURRENT  CLOUDY    61  43  51 VRB5G20   29.81R
REGINA         MOCLDY    55  43  62 SE17      29.92F
SASKATOON      PTCLDY    50  34  53 NE15      29.90F
$$



USA.gov is the U.S. government's official web portal to all federal, state and local government web resources and services.